NB0X-13 Weather Reports


time (UTC)temp
F
wind
direction
speed
knots
gust
knots
rain 1hr
in
rain 24hr
in
rain mn
in
humidity
%
barometer
mb
20260510174543 67 9 6.1 13.0 0.00 0.00 0.00 34 1023.8
20260510173533 67 2 4.3 9.6 0.00 0.00 0.00 34 1023.6
20260510172523 67 21 4.3 9.6 0.00 0.00 0.00 31 1023.6
20260510171614 67 21 3.5 7.0 0.00 0.00 0.00 29 1022.9
20260510170604 67 348 4.3 7.0 0.00 0.00 0.00 29 1022.9
20260510165615 67 57 1.7 5.2 0.00 0.00 0.00 29 1023.1
20260510164545 68 252 1.7 5.2 0.00 0.00 0.00 29 1023.1
20260510163534 67 237 2.6 6.1 0.00 0.00 0.00 30 1023.0
20260510162524 65 358 3.5 7.8 0.00 0.00 0.00 32 1022.4
20260510161615 65 41 2.6 6.1 0.00 0.00 0.00 32 1022.6
20260510160625 63 14 1.7 5.2 0.00 0.00 0.00 35 1022.8
20260510155555 61 19 1.7 3.5 0.00 0.00 0.00 37 1023.0
20260510154546 59 2 2.6 6.1 0.00 0.00 0.00 39 1023.2
20260510153536 59 5 5.2 7.0 0.00 0.00 0.00 40 1023.5
20260510152525 59 348 6.1 11.3 0.00 0.00 0.00 40 1023.7
20260510151616 58 3 5.2 8.7 0.00 0.00 0.00 41 1023.8
20260510150606 57 354 6.1 11.3 0.00 0.00 0.00 42 1023.8
20260510145556 57 6 7.8 14.8 0.00 0.00 0.00 42 1024.1
20260510144607 57 351 6.1 13.9 0.00 0.00 0.00 43 1024.3
20260510143536 57 351 7.0 13.0 0.00 0.00 0.00 43 1024.1
20260510142526 57 340 6.1 15.6 0.00 0.00 0.00 42 1023.9
20260510141516 57 348 5.2 14.8 0.00 0.00 0.00 41 1023.3
20260510140607 57 336 5.2 11.3 0.00 0.00 0.00 41 1023.2
20260510135557 57 341 4.3 13.0 0.00 0.00 0.00 40 1023.1
20260510134547 58 336 5.2 10.4 0.00 0.00 0.00 37 1023.1
20260510133537 59 340 7.0 14.8 0.00 0.00 0.00 35 1022.6
20260510132547 59 354 5.2 12.2 0.00 0.00 0.00 35 1022.5
20260510131517 58 336 4.3 12.2 0.00 0.00 0.00 35 1022.2
20260510130608 58 357 6.1 13.0 0.00 0.00 0.00 34 1021.8
20260510125558 58 12 7.8 14.8 0.00 0.00 0.00 34 1021.5
20260510124548 59 351 7.0 13.9 0.00 0.00 0.00 33 1021.4
20260510123538 59 343 7.8 14.8 0.00 0.00 0.00 32 1021.1
20260510122528 59 345 8.7 17.4 0.00 0.00 0.00 31 1020.9
20260510121518 58 342 7.8 16.5 0.00 0.00 0.00 30 1020.4
20260510120609 59 333 4.3 11.3 0.00 0.00 0.00 28 1019.8
20260510115559 58 328 2.6 7.8 0.00 0.00 0.00 28 1019.7
20260510114549 58 326 0.9 6.1 0.00 0.00 0.00 27 1019.5
20260510113539 58 6 3.5 7.8 0.00 0.00 0.00 26 1019.4
20260510112528 59 336 0.9 3.5 0.00 0.00 0.00 26 1019.3
20260510111518 60 350 0.9 5.2 0.00 0.00 0.00 25 1019.3
20260510110629 61 10 2.6 7.0 0.00 0.00 0.00 24 1019.1
20260510105600 59 269 1.7 4.3 0.00 0.00 0.00 24 1018.7
20260510104550 60 17 4.3 10.4 0.00 0.00 0.00 25 1018.7
20260510103539 61 192 2.6 4.3 0.00 0.00 0.00 22 1018.2
20260510102529 60 206 3.5 5.2 0.00 0.00 0.00 23 1018.3
20260510101519 59 159 0.9 2.6 0.00 0.00 0.00 25 1018.3
20260510100630 56 205 2.6 4.3 0.00 0.00 0.00 28 1018.4
20260510095601 51 155 1.7 2.6 0.00 0.00 0.00 35 1018.1
20260510094611 52 116 0.9 1.7 0.00 0.00 0.00 34 1018.0
20260510093601 53 155 0.0 1.7 0.00 0.00 0.00 33 1017.8
20260510092531 53 182 0.9 1.7 0.00 0.00 0.00 32 1018.0
20260510091521 54 224 1.7 3.5 0.00 0.00 0.00 31 1017.9
20260510090612 56 218 0.9 2.6 0.00 0.00 0.00 29 1017.8
20260510085602 59 225 0.9 1.7 0.00 0.00 0.00 26 1017.9
20260510084612 60 186 0.9 2.6 0.00 0.00 0.00 26 1017.7
20260510083542 60 165 1.7 4.3 0.00 0.00 0.00 25 1017.7
20260510082532 59 153 2.6 3.5 0.00 0.00 0.00 28 1017.7
20260510081522 60 106 0.0 1.7 0.00 0.00 0.00 27 1017.5
20260510080613 62 205 0.0 1.7 0.00 0.00 0.00 26 1017.7
20260510075644 63 199 1.7 2.6 0.00 0.00 0.00 25 1017.8
20260510074554 65 121 0.9 1.7 0.00 0.00 0.00 24 1017.6
20260510073543 67 154 0.9 3.5 0.00 0.00 0.00 23 1017.6
20260510072533 68 186 0.9 4.3 0.00 0.00 0.00 20 1017.8
20260510071523 68 190 1.7 4.3 0.00 0.00 0.00 20 1017.8
20260510070634 68 216 3.5 7.0 0.00 0.00 0.00 20 1017.9
20260510065605 67 219 2.6 6.1 0.00 0.00 0.00 22 1018.0
20260510064555 66 202 0.9 2.6 0.00 0.00 0.00 23 1018.1
20260510063544 68 235 0.9 7.8 0.00 0.00 0.00 22 1018.0
20260510062534 67 225 5.2 12.2 0.00 0.00 0.00 22 1017.9
20260510061525 65 197 2.6 6.1 0.00 0.00 0.00 23 1018.2
20260510060615 65 203 1.7 3.5 0.00 0.00 0.00 23 1018.3
20260510055605 65 182 1.7 3.5 0.00 0.00 0.00 23 1018.2
20260510054555 65 173 0.9 1.7 0.00 0.00 0.00 23 1018.3
20260510053545 67 203 1.7 3.5 0.00 0.00 0.00 22 1018.2
20260510052535 68 202 3.5 6.1 0.00 0.00 0.00 21 1018.2
20260510051525 68 203 3.5 7.8 0.00 0.00 0.00 21 1018.2
20260510050616 68 200 1.7 6.1 0.00 0.00 0.00 21 1018.3
20260510045606 69 215 2.6 7.8 0.00 0.00 0.00 20 1018.4
20260510044556 69 204 2.6 10.4 0.00 0.00 0.00 20 1018.4
20260510043546 69 216 5.2 9.6 0.00 0.00 0.00 20 1018.4
20260510042536 68 205 4.3 8.7 0.00 0.00 0.00 21 1018.3
20260510041526 68 209 5.2 9.6 0.00 0.00 0.00 21 1018.5
20260510040516 65 219 7.0 13.0 0.00 0.00 0.00 22 1018.6
20260510035607 58 217 2.6 6.1 0.00 0.00 0.00 26 1018.3
20260510034558 59 167 1.7 2.6 0.00 0.00 0.00 26 1018.1
20260510033607 59 158 1.7 2.6 0.00 0.00 0.00 25 1018.0
20260510032537 59 167 1.7 2.6 0.00 0.00 0.00 25 1017.9
20260510031547 60 176 0.9 2.6 0.00 0.00 0.00 24 1017.8
20260510030517 61 186 0.9 2.6 0.00 0.00 0.00 23 1017.7
20260510025608 64 223 1.7 2.6 0.00 0.00 0.00 21 1017.5
20260510024558 66 207 0.9 2.6 0.00 0.00 0.00 19 1017.4
20260510023548 67 180 0.9 2.6 0.00 0.00 0.00 19 1017.2
20260510022538 68 213 0.9 2.6 0.00 0.00 0.00 18 1017.2
20260510021528 69 215 0.9 3.5 0.00 0.00 0.00 17 1017.1
20260510020518 70 180 1.7 3.5 0.00 0.00 0.00 17 1017.0
20260510015609 71 204 2.6 4.3 0.00 0.00 0.00 16 1017.0
20260510014620 72 207 3.5 5.2 0.00 0.00 0.00 16 1016.7
20260510013549 72 213 4.3 7.8 0.00 0.00 0.00 15 1016.7
20260510012539 73 222 5.2 11.3 0.00 0.00 0.00 15 1016.7
20260510011529 74 229 4.3 7.0 0.00 0.00 0.00 15 1016.4
20260510010519 75 222 3.5 7.0 0.00 0.00 0.00 14 1016.5
20260510005610 75 248 3.5 6.1 0.00 0.00 0.00 14 1016.6
20260510004600 75 236 6.1 9.6 0.00 0.00 0.00 14 1016.5
20260510003550 76 228 5.2 11.3 0.00 0.00 0.00 14 1016.4
20260510002540 78 236 6.1 12.2 0.00 0.00 0.00 13 1016.3
20260510001529 78 262 3.5 7.8 0.00 0.00 0.00 13 1016.4
20260510000540 78 244 5.2 13.0 0.00 0.00 0.00 13 1016.6
20260509235611 79 249 3.5 13.0 0.00 0.00 0.00 13 1016.4
20260509234601 79 242 4.3 8.7 0.00 0.00 0.00 12 1016.5
20260509233551 78 322 1.7 5.2 0.00 0.00 0.00 13 1016.5
20260509232541 78 295 1.7 8.7 0.00 0.00 0.00 13 1016.6
20260509231531 79 239 5.2 10.4 0.00 0.00 0.00 13 1016.8
20260509230521 79 283 6.1 11.3 0.00 0.00 0.00 13 1016.6
20260509225613 78 241 3.5 11.3 0.00 0.00 0.00 12 1016.8
20260509224642 77 253 4.3 10.4 0.00 0.00 0.00 13 1017.0
20260509223612 79 241 6.1 14.8 0.00 0.00 0.00 13 1017.0
20260509222542 79 293 6.1 14.8 0.00 0.00 0.00 13 1017.1
20260509221552 77 344 3.5 9.6 0.00 0.00 0.00 13 1017.1
20260509220522 79 284 4.3 10.4 0.00 0.00 0.00 12 1017.3
20260509215613 79 299 3.5 7.8 0.00 0.00 0.00 12 1017.2
20260509214603 79 277 2.6 10.4 0.00 0.00 0.00 13 1017.3
20260509213553 79 287 4.3 8.7 0.00 0.00 0.00 13 1017.5
20260509212543 79 279 3.5 10.4 0.00 0.00 0.00 13 1017.6
20260509211533 78 244 6.1 12.2 0.00 0.00 0.00 13 1017.9
20260509210523 79 240 6.1 15.6 0.00 0.00 0.00 13 1018.0
20260509205614 80 284 4.3 11.3 0.00 0.00 0.00 13 1018.1
20260509204604 79 324 6.1 9.6 0.00 0.00 0.00 13 1018.1
20260509203554 79 252 5.2 13.0 0.00 0.00 0.00 13 1018.2
20260509202544 78 279 5.2 10.4 0.00 0.00 0.00 13 1018.4
20260509201554 78 329 6.1 17.4 0.00 0.00 0.00 13 1018.5
20260509200524 78 275 3.5 10.4 0.00 0.00 0.00 13 1018.7
20260509195616 78 307 4.3 9.6 0.00 0.00 0.00 13 1018.6
20260509194605 77 342 2.6 8.7 0.00 0.00 0.00 13 1018.8
20260509193555 79 257 6.1 12.2 0.00 0.00 0.00 13 1019.0
20260509192545 77 290 2.6 13.9 0.00 0.00 0.00 13 1018.9
20260509191535 78 247 3.5 10.4 0.00 0.00 0.00 13 1019.0
20260509190525 76 222 6.1 11.3 0.00 0.00 0.00 13 1018.9
20260509185616 77 292 2.6 7.0 0.00 0.00 0.00 14 1019.1
20260509184605 77 218 11.3 16.5 0.00 0.00 0.00 13 1019.2
20260509183636 77 246 4.3 10.4 0.00 0.00 0.00 13 1019.4
20260509182546 77 348 3.5 7.8 0.00 0.00 0.00 13 1019.5
20260509181556 77 255 5.2 10.4 0.00 0.00 0.00 14 1019.6
20260509180525 76 317 4.3 9.6 0.00 0.00 0.00 14 1019.7
20260509175556 76 338 5.2 11.3 0.00 0.00 0.00 15 1019.8